Location: Newark
(35.6799°N, 139.7636°E)
Time: 19:42:43
(UTC+00:00)

Explorer 7 - Pass Details

Date: 09 December 2019
Orbit: 485 x 679 km, 50.3° (Epoch: 25 January)

Event Time Altitude Azimuth Distance (km) Brightness Sun altitude
Rises 05:02:55 0° 190° (S) 2,920 11.6 21.6°
Reaches altitude 10° 05:05:44 10° 173° (S) 2,045 10.5 21.3°
Maximum altitude 05:09:06 20° 127° (SE) 1,539 9.2 20.9°
Drops below altitude 10° 05:12:34 10° 82° (E) 2,102 9.4 20.4°
Sets 05:15:30 0° 65° (ENE) 3,030 10.1 20.0°
